This is the latest recevied weather packets stored in our database for station/object W9PEM-13. If no packets are shown the sender has not sent any weather packets the latest 10 day(s).
| Time | Temp. | Humidity | Pressure | Rain* | Wind** | Luminosity | Snow |
|---|---|---|---|---|---|---|---|
| 1787410462 | 22.22° C | 67% | 1013.3 hPa | 0 mm | - | 736 W/m² | - |
| 1787409973 | 22.22° C | 67% | 1013.3 hPa | 0 mm | - | 736 W/m² | - |
| 1787409761 | 21.67° C | 66% | 1013.2 hPa | 0 mm | - | 442 W/m² | - |
| 1787408936 | 21.67° C | 68% | 1013.3 hPa | 0 mm | - | 553 W/m² | - |
| 1787408386 | 21.11° C | 67% | 1013.5 hPa | 0 mm | - | 520 W/m² | - |
| 1787408247 | 21.11° C | 69% | 1013.5 hPa | 0 mm | - | 487 W/m² | - |
| 1787408172 | 21.11° C | 67% | 1013.5 hPa | 0 mm | - | 520 W/m² | - |
| 1787407571 | 21.11° C | 69% | 1013.5 hPa | 0 mm | - | 487 W/m² | - |
| 1787407120 | 21.11° C | 69% | 1013.5 hPa | 0 mm | - | 449 W/m² | - |
| 1787406567 | 20.56° C | 74% | 1013.4 hPa | 0 mm | - | 419 W/m² | - |
| 1787406370 | 20.56° C | 74% | 1013.4 hPa | 0 mm | - | 419 W/m² | - |
| 1787406083 | 20° C | 74% | 1013.4 hPa | 0 mm | - | 385 W/m² | - |
| 1787406033 | 20° C | 74% | 1013.4 hPa | 0 mm | - | 385 W/m² | - |
| 1787405769 | 20° C | 74% | 1013.4 hPa | 0 mm | - | 385 W/m² | - |
| 1787405373 | 19.44° C | 80% | 1013.5 hPa | 0 mm | - | 326 W/m² | - |
| 1787405169 | 19.44° C | 80% | 1013.5 hPa | 0 mm | - | 326 W/m² | - |
| 1787404689 | 19.44° C | 79% | 1013.4 hPa | 0 mm | - | 88 W/m² | - |
| 1787404134 | 18.89° C | 81% | 1013.4 hPa | 0 mm | - | 296 W/m² | - |
| 1787403968 | 18.89° C | 81% | 1013.4 hPa | 0 mm | - | 296 W/m² | - |
| 1787403465 | 18.33° C | 81% | 1013.5 hPa | 0 mm | - | 243 W/m² | - |
| 1787402896 | 18.33° C | 84% | 1013.4 hPa | 0 mm | - | 211 W/m² | - |
| 1787402837 | 18.33° C | 84% | 1013.4 hPa | 0 mm | - | 211 W/m² | - |
| 1787402768 | 18.33° C | 84% | 1013.4 hPa | 0 mm | - | 211 W/m² | - |
| 1787402343 | 17.78° C | 84% | 1013.4 hPa | 0 mm | - | 180 W/m² | - |
| 1787402244 | 17.78° C | 84% | 1013.4 hPa | 0 mm | - | 180 W/m² | - |
* Rain latest hour (hover to see other rain measurements)
** Current wind speed in m/s (hover to see current wind gust speed)